Tracking 29892 objects as of 21-Nov-2024
HD Live streaming from Space Station
objects crossing your sky now

STARLINK-3244

Track STARLINK-3244 now!
10-day predictions
STARLINK-3244 is classified as:


NORAD ID: 49741
Int'l Code: 2021-115T
Perigee: 546.0 km
Apogee: 547.7 km
Inclination: 53.2 °
Period: 95.4 minutes
Semi major axis: 6917 km
RCS: Unknown
Launch date: December 2, 2021
Source: United States (US)
Launch site: AIR FORCE EASTERN TEST RANGE (AFETR)
Your satellite tracking list
Your tracking list is empty




NASA's NSSDC Master Catalog

Two Line Element Set (TLE):
1 49741U 21115T   24325.80196980  .00000650  00000-0  58927-4 0  9998
2 49741  53.2165 116.4919 0001246  83.3835 276.7299 15.08843107163990
Source of the keplerian elements: AFSPC